Regional Weather Roundup
Issued by NWS

Home | Current Version | Previous Version | Text Only | Print | Product List | Glossary On
Versions: 1 2 3 4 5 6 7 8 9 10 11 12 13 14 15 16 17 18 19 20 21 22 23 24 25 26 27
000
ASUS45 KBOI 242210
RWRID

IDAHO REGIONAL WEATHER ROUNDUP
NATIONAL WEATHER SERVICE BOISE ID
400 PM MDT TUE APR 24 2018

NOTE: "FAIR" INDICATES FEW OR NO CLOUDS BELOW 12000 FEET
WITH NO SIGNIFICANT WEATHER AND/OR OBSTRUCTIONS TO VISIBILITY

IDZ012-014-242300-
SOUTHWEST IDAHO


CITY           SKY/WX    TMP DP  RH WIND       PRES   REMARKS
BOISE          SUNNY     66  33  29 SE9       30.26F
CALDWELL       SUNNY     69  35  28 E14       30.26F
$$

IDZ016-017-242300-
SOUTHCENTRAL IDAHO


CITY           SKY/WX    TMP DP  RH WIND       PRES   REMARKS
BURLEY         SUNNY     61  27  27 NE12G21   30.29F
JEROME         SUNNY     64  23  21 NE18G26   30.30F
TWIN FALLS     SUNNY     63  29  27 NE16      30.29F
$$

IDZ019>023-242300-
SOUTHEAST IDAHO


CITY           SKY/WX    TMP DP  RH WIND       PRES   REMARKS
IDAHO FALLS    MOSUNNY   57  33  40 NE12      30.35F
POCATELLO      MOSUNNY   62  35  36 N14       30.31F
REXBURG        SUNNY     56  29  35 VRB3      30.35F
$$

IDZ006-010-011-018-031-032-242300-
CENTRAL IDAHO MOUNTAINS


CITY           SKY/WX    TMP DP  RH WIND       PRES   REMARKS
MCCALL         SUNNY     63  22  20 N9        30.27F
HAILEY         SUNNY     57  30  35 S5        30.33F
STANLEY          N/A     56  18  22 S7        30.32F
SALMON         SUNNY     61  20  20 N5        30.33F
CHALLIS        SUNNY     64  14  14 N6        30.31F
$$

IDZ002-004-006-007-026-242300-
NORTHERN IDAHO


CITY           SKY/WX    TMP DP  RH WIND       PRES   REMARKS
LEWISTON       SUNNY     73  39  29 NE9G17    30.21F
LOWELL           N/A     80  29  15 VRB3      30.20
COEUR D`ALENE  SUNNY     69  26  20 VRB6      30.25F
MULLAN PASS    SUNNY     53  12  19 VRB3      30.34F
$$




USA.gov is the U.S. government's official web portal to all federal, state and local government web resources and services.